Regional Weather Roundup
Issued by NWS Tiyan, Guam

Current Version | Previous Version | Text Only | Print | Product List | Glossary On
Versions: 1 2 3 4 5 6 7 8 9 10 11 12 13 14 15 16 17 18 19 20 21 22 23 24 25 26 27 28 29 30 31 32 33 34 35 36 37 38 39 40 41 42 43 44 45 46 47 48 49
000
ASGM40 PGUM 250414
RWRGUM
WEATHER ROUNDUP FOR THE MARIANAS
NATIONAL WEATHER SERVICE TIYAN GU
200 PM CHST MON MAY 25 2015

GUZ001>004-250500-
MARIANA ISLANDS-

CITY           SKY/WX    TMP DP  RH WIND       PRES   REMARKS
GUAM AIRPORT   MOSUNNY   86  73  66 SE8       29.92F HX  93
ANDERSEN AFB   MOSUNNY   84  73  70 SE12      29.93S HX  91
ROTA AIRPORT   NOT AVBL
TINIAN AP      NOT AVBL
SAIPAN AP      MOSUNNY   84  75  74 E13       29.92F HX  92

$$



USA.gov is the U.S. government's official web portal to all federal, state and local government web resources and services.